Tracking 19792 objects as of 16-Jul-2019
HD Live streaming from Space Station
objects crossing your sky now

WESTFORD NEEDLES

Track WESTFORD NEEDLES now!
10-day predictions
WESTFORD NEEDLES is classified as:


NORAD ID: 19059
Int'l Code: 1963-014EG
Perigee: 3,569.0 km
Apogee: 3,715.5 km
Inclination: 87.3 °
Period: 166.2 minutes
Semi major axis: 10013 km
RCS: 0.205 m2 (medium)
Launch date: May 9, 1963
Source: United States (US)
Launch site: AIR FORCE WESTERN TEST RANGE (AFWTR)
aabbcc
Your satellite tracking list
Your tracking list is empty




NASA's NSSDC Master Catalog

Two Line Element Set (TLE):
1 19059U 63014EG  19195.65787967 -.00000032 +00000-0 -16060-1 0  9999
2 19059 087.3229 069.4783 0073178 103.9494 256.9512 08.66440937994739
Source of the keplerian elements: AFSPC